Litchfield, MN

8:52 PM CST on December 13, 2019 (GMT -0600)
Litchfield Municipal

Weather History for KLJF - November, 2019

Change the Weather History Date:

Friday, November 15, 2019

  Actual Average Record
Temperature  
Mean Temperature 34 °F -  
Max Temperature 44 °F 41 °F 67 °F (1953)
Min Temperature 23 °F 22 °F -4 °F (1982)
Degree Days  
Heating Degree Days 32    
Moisture  
Dew Point 29 °F    
Average Humidity 87    
Maximum Humidity 100    
Minimum Humidity 57    
Precipitation  
Precipitation 0.00 in - - ()
Sea Level Pressure  
Sea Level Pressure 30.26 in    
Wind  
Wind Speed 5 mph ()    
Max Wind Speed 13 mph    
Max Gust Speed 17 mph    
Visibility 8.1 miles    
Events Fog    
Averages and records for this station are not official NWS values.
T = Trace of Precipitation, MM = Missing Value Source: Averaged Metar Reports

Daily Weather History Graph

Daily Weather History Graph

Search for Another Location

Airport or City:

Astronomy

Nov. 15, 2019 Rise Set
Actual Time 7:15 AM CST 4:49 PM CST
Civil Twilight 6:43 AM CST 5:20 PM CST
Nautical Twilight 6:08 AM CST 5:56 PM CST
Astronomical Twilight 5:33 AM CST 6:31 PM CST
Moon 7:20 PM CST (11/15) 10:17 AM CST (11/15)
Length of Visible Light 10h 36m
Length of Day
9h 33m
Waning Gibbous, 90% of the Moon is Illuminated
Nov 15
Waning Gibbous
Nov 19
Last Quarter
Nov 26
New
Dec 4
First Quarter
Dec 11
Full

Hourly Weather History & Observations

Time (CST) Temp. Windchill Dew Point Humidity Pressure Visibility Wind Dir Wind Speed Gust Speed Precip Events Conditions
12:17 AM 32.0 °F 27.5 °F 32.0 °F 100% 30.21 in 10.0 mi WSW 4.6 mph - N/A   Unknown
12:36 AM 30.2 °F 26.7 °F 30.2 °F 100% 30.21 in 10.0 mi WSW 3.5 mph - N/A   Unknown
12:55 AM 30.2 °F 26.7 °F 30.2 °F 100% 30.22 in 10.0 mi West 3.5 mph - N/A   Unknown
12:56 AM 30.2 °F 26.7 °F 30.2 °F 100% 30.22 in 10.0 mi West 3.5 mph - N/A   Unknown
1:15 AM 32.0 °F - 32.0 °F 100% 30.22 in 10.0 mi Calm Calm - N/A   Unknown
1:19 AM 32.0 °F - 32.0 °F 100% 30.22 in 10.0 mi Calm Calm - N/A   Unknown
1:38 AM 33.8 °F - 33.8 °F 100% 30.22 in 10.0 mi Calm Calm - N/A   Unknown
1:56 AM 32.0 °F - 32.0 °F 100% 30.22 in 10.0 mi Calm Calm - N/A   Unknown
2:15 AM 30.2 °F - 30.2 °F 100% 30.22 in 10.0 mi Calm Calm - N/A   Unknown
2:35 AM 30.2 °F - 30.2 °F 100% 30.23 in 7.0 mi Calm Calm - N/A   Unknown
2:36 AM 30.2 °F - 30.2 °F 100% 30.22 in 7.0 mi Calm Calm - N/A   Unknown
2:58 AM 26.6 °F - 26.6 °F 100% 30.23 in 5.0 mi Calm Calm - N/A   Mist
3:16 AM 28.4 °F - 28.4 °F 100% 30.23 in 5.0 mi Calm Calm - N/A   Mist
3:35 AM 26.6 °F - 26.6 °F 100% 30.24 in 4.0 mi Calm Calm - N/A   Mist
3:36 AM 26.6 °F - 26.6 °F 100% 30.24 in 4.0 mi Calm Calm - N/A   Mist
3:55 AM 24.8 °F - 24.8 °F 100% 30.24 in 3.0 mi Calm Calm - N/A   Mist
4:15 AM 26.6 °F - 26.6 °F 100% 30.25 in 1.0 mi Calm Calm - N/A   Mist
4:19 AM 26.6 °F - 26.6 °F 100% 30.25 in 0.5 mi Calm Calm - N/A Fog Light Freezing Fog
4:37 AM 24.8 °F - 24.8 °F 100% 30.25 in 4.0 mi Calm Calm - N/A   Mist
5:15 AM 24.8 °F - 24.8 °F 100% 30.26 in 0.8 mi Calm Calm - N/A   Mist
5:16 AM 24.8 °F - 24.8 °F 100% 30.26 in 0.5 mi Calm Calm - N/A Fog Light Freezing Fog
5:35 AM 24.8 °F - 24.8 °F 100% 30.26 in 4.0 mi Calm Calm - N/A   Mist
5:36 AM 24.8 °F - 24.8 °F 100% 30.26 in 5.0 mi Calm Calm - N/A   Mist
5:58 AM 23.0 °F - 23.0 °F 100% 30.26 in 5.0 mi Calm Calm - N/A   Mist
6:17 AM 24.8 °F - 24.8 °F 100% 30.27 in 0.5 mi Calm Calm - N/A Fog Light Freezing Fog
6:35 AM 23.0 °F - 23.0 °F 100% 30.28 in 1.5 mi Calm Calm - N/A   Mist
6:36 AM 23.0 °F - 23.0 °F 100% 30.28 in 1.0 mi Calm Calm - N/A   Mist
6:55 AM 23.0 °F - 23.0 °F 100% 30.28 in 0.8 mi Calm Calm - N/A   Mist
6:56 AM 23.0 °F - 23.0 °F 100% 30.28 in 0.8 mi Calm Calm - N/A   Mist
7:15 AM 23.0 °F 18.4 °F 23.0 °F 100% 30.28 in 0.5 mi ENE 3.5 mph - N/A Fog Light Freezing Fog
7:37 AM 26.6 °F - 26.6 °F 100% 30.28 in 2.5 mi Calm Calm - N/A   Mist
7:55 AM 26.6 °F 21.2 °F 26.6 °F 100% 30.29 in 3.0 mi East 4.6 mph - N/A   Mist
8:15 AM 28.4 °F 24.6 °F 28.4 °F 100% 30.29 in 5.0 mi East 3.5 mph - N/A   Mist
8:16 AM 28.4 °F 24.6 °F 28.4 °F 100% 30.29 in 5.0 mi East 3.5 mph - N/A   Mist
8:35 AM 30.2 °F 25.4 °F 30.2 °F 100% 30.29 in 7.0 mi East 4.6 mph - N/A   Unknown
8:36 AM 30.2 °F 25.4 °F 30.2 °F 100% 30.29 in 7.0 mi East 4.6 mph - N/A   Unknown
8:59 AM 33.8 °F 30.8 °F 33.8 °F 100% 30.30 in 10.0 mi East 3.5 mph - N/A   Unknown
9:16 AM 35.6 °F 28.6 °F 35.6 °F 100% 30.30 in 10.0 mi ESE 9.2 mph - N/A   Unknown
9:36 AM 35.6 °F 29.9 °F 33.8 °F 93% 30.30 in 10.0 mi ESE 6.9 mph - N/A   Unknown
9:55 AM 35.6 °F 29.9 °F 33.8 °F 93% 30.31 in 10.0 mi East 6.9 mph - N/A   Unknown
9:56 AM 35.6 °F 29.9 °F 33.8 °F 93% 30.30 in 10.0 mi East 6.9 mph - N/A   Unknown
10:15 AM 37.4 °F 30.8 °F 32.0 °F 81% 30.31 in 10.0 mi East 9.2 mph - N/A   Unknown
10:19 AM 37.4 °F 30.8 °F 32.0 °F 81% 30.31 in 10.0 mi East 9.2 mph - N/A   Unknown
10:37 AM 37.4 °F 30.3 °F 32.0 °F 81% 30.31 in 10.0 mi ESE 10.4 mph - N/A   Unknown
10:55 AM 39.2 °F 32.0 °F 32.0 °F 75% 30.31 in 10.0 mi ESE 11.5 mph - N/A   Unknown
11:15 AM 41.0 °F 35.2 °F 33.8 °F 76% 30.31 in 10.0 mi East 9.2 mph - N/A   Unknown
11:58 AM 42.8 °F 36.2 °F 33.8 °F 70% 30.30 in 10.0 mi East 12.7 mph - N/A   Unknown
12:36 PM 42.8 °F 37.0 °F 32.0 °F 66% 30.30 in 10.0 mi East 10.4 mph - N/A   Unknown
12:55 PM 44.6 °F 38.8 °F 32.0 °F 61% 30.29 in 10.0 mi East 11.5 mph - N/A   Unknown
12:56 PM 44.6 °F 38.8 °F 32.0 °F 61% 30.29 in 10.0 mi East 11.5 mph - N/A   Unknown
1:15 PM 44.6 °F 39.2 °F 32.0 °F 61% 30.29 in 10.0 mi East 10.4 mph - N/A   Unknown
1:19 PM 44.6 °F 39.2 °F 32.0 °F 61% 30.28 in 10.0 mi East 10.4 mph - N/A   Unknown
1:37 PM 44.6 °F 39.2 °F 30.2 °F 57% 30.28 in 10.0 mi East 10.4 mph - N/A   Unknown
1:56 PM 41.0 °F 34.7 °F 30.2 °F 65% 30.28 in 10.0 mi East 10.4 mph 16.1 mph N/A   Unknown
2:15 PM 41.0 °F 34.3 °F 30.2 °F 65% 30.27 in 10.0 mi East 11.5 mph - N/A   Unknown
2:16 PM 41.0 °F 34.7 °F 30.2 °F 65% 30.27 in 10.0 mi East 10.4 mph - N/A   Unknown
2:35 PM 39.2 °F 32.5 °F 28.4 °F 65% 30.27 in 10.0 mi East 10.4 mph - N/A   Light Drizzle
2:36 PM 39.2 °F 33.0 °F 28.4 °F 65% 30.28 in 10.0 mi East 9.2 mph - N/A   Light Drizzle
2:58 PM 39.2 °F 32.0 °F 28.4 °F 65% 30.27 in 10.0 mi East 11.5 mph - N/A   Unknown
3:16 PM 37.4 °F 31.4 °F 28.4 °F 70% 30.27 in 10.0 mi East 8.1 mph - N/A   Unknown
3:36 PM 37.4 °F 30.3 °F 28.4 °F 70% 30.27 in 10.0 mi East 10.4 mph - N/A   Unknown
3:55 PM 37.4 °F 30.8 °F 28.4 °F 70% 30.27 in 10.0 mi East 9.2 mph - N/A   Unknown
3:56 PM 37.4 °F 30.3 °F 28.4 °F 70% 30.27 in 10.0 mi East 10.4 mph - N/A   Unknown
4:15 PM 35.6 °F 28.6 °F 28.4 °F 75% 30.27 in 10.0 mi East 9.2 mph - N/A   Unknown
4:19 PM 35.6 °F 29.2 °F 28.4 °F 75% 30.27 in 10.0 mi East 8.1 mph - N/A   Unknown
4:38 PM 35.6 °F 28.0 °F 28.4 °F 75% 30.26 in 10.0 mi East 10.4 mph - N/A   Unknown
4:56 PM 35.6 °F 28.6 °F 28.4 °F 75% 30.26 in 10.0 mi East 9.2 mph - N/A   Unknown
5:15 PM 33.8 °F 26.4 °F 28.4 °F 81% 30.26 in 10.0 mi East 9.2 mph - N/A   Unknown
5:16 PM 33.8 °F 26.4 °F 28.4 °F 81% 30.26 in 10.0 mi East 9.2 mph - N/A   Unknown
5:35 PM 33.8 °F 26.4 °F 28.4 °F 81% 30.26 in 10.0 mi East 9.2 mph - N/A   Unknown
5:39 PM 33.8 °F 26.4 °F 28.4 °F 81% 30.26 in 10.0 mi East 9.2 mph - N/A   Unknown
5:57 PM 33.8 °F 25.3 °F 28.4 °F 81% 30.25 in 10.0 mi East 11.5 mph - N/A   Unknown
6:35 PM 33.8 °F 26.4 °F 28.4 °F 81% 30.26 in 10.0 mi East 9.2 mph - N/A   Unknown
6:55 PM 33.8 °F 25.3 °F 28.4 °F 81% 30.26 in 10.0 mi East 11.5 mph - N/A   Unknown
6:56 PM 33.8 °F 24.8 °F 28.4 °F 81% 30.26 in 10.0 mi East 12.7 mph - N/A   Unknown
7:36 PM 32.0 °F 23.6 °F 28.4 °F 87% 30.26 in 10.0 mi East 10.4 mph - N/A   Unknown
7:56 PM 32.0 °F 23.6 °F 28.4 °F 87% 30.25 in 10.0 mi East 10.4 mph - N/A   Unknown
8:15 PM 33.8 °F 25.3 °F 28.4 °F 81% 30.25 in 10.0 mi East 11.5 mph - N/A   Unknown
8:16 PM 33.8 °F 25.3 °F 28.4 °F 81% 30.25 in 10.0 mi East 11.5 mph - N/A   Unknown
8:35 PM 33.8 °F 25.8 °F 28.4 °F 81% 30.24 in 10.0 mi ESE 10.4 mph - N/A   Unknown
8:58 PM 33.8 °F 25.3 °F 28.4 °F 81% 30.24 in 10.0 mi ESE 11.5 mph - N/A   Unknown
9:15 PM 33.8 °F 24.8 °F 30.2 °F 87% 30.23 in 10.0 mi ESE 12.7 mph - N/A   Unknown
9:35 PM 35.6 °F 28.0 °F 30.2 °F 81% 30.23 in 10.0 mi ESE 10.4 mph 17.3 mph N/A   Unknown
9:36 PM 35.6 °F 28.0 °F 30.2 °F 81% 30.23 in 10.0 mi ESE 10.4 mph 17.3 mph N/A   Unknown
9:55 PM 35.6 °F 27.5 °F 30.2 °F 81% 30.23 in 10.0 mi ESE 11.5 mph - N/A   Unknown
9:56 PM 35.6 °F 27.5 °F 30.2 °F 81% 30.23 in 10.0 mi ESE 11.5 mph - N/A   Unknown
10:18 PM 33.8 °F 25.8 °F 30.2 °F 87% 30.23 in 10.0 mi ESE 10.4 mph - N/A   Unknown
10:36 PM 33.8 °F 25.8 °F 30.2 °F 87% 30.23 in 10.0 mi ESE 10.4 mph - N/A   Unknown
10:55 PM 33.8 °F 25.8 °F 30.2 °F 87% 30.22 in 10.0 mi SE 10.4 mph - N/A   Unknown
11:15 PM 35.6 °F 27.5 °F 32.0 °F 87% 30.22 in 10.0 mi SE 11.5 mph 17.3 mph N/A   Unknown
11:35 PM 35.6 °F 27.5 °F 32.0 °F 87% 30.21 in 10.0 mi SE 11.5 mph - N/A   Unknown
11:39 PM 35.6 °F 27.5 °F 32.0 °F 87% 30.21 in 10.0 mi SE 11.5 mph 16.1 mph N/A   Unknown
11:57 PM 35.6 °F 29.2 °F 32.0 °F 87% 30.20 in 10.0 mi SE 8.1 mph - N/A   Unknown